Tracking 31027 objects as of 19-Jul-2025
HD Live streaming from Space Station
objects crossing your sky now

FENGYUN 1C DEB

Track FENGYUN 1C DEB now!
10-day predictions


NORAD ID: 37421
Int'l Code: 1999-025EGP
Perigee: 808.6 km
Apogee: 1,421.6 km
Inclination: 98.9 °
Period: 107.4 minutes
Semi major axis: 7486 km
RCS: 0.0016 m2 (small)
Launch date: May 10, 1999
Source: People's Republic of China (PRC)
Launch site: Taiyaun Space Center, China (TSC)

Note: This is SATELLITE DEBRIS
Your satellite tracking list
KL-BETA B
Track 1 satellite(s)




NASA's NSSDC Master Catalog

Two Line Element Set (TLE):
1 37421U 99025EGP 25198.38952043  .00000398  00000-0  48216-3 0  9995
2 37421  98.8633 170.9782 0409469  98.3715 266.4044 13.40351111769317
Source of the keplerian elements: AFSPC